[vc_row][vc_column width=”2/3″]

Nesenie raksti

Ziņas

[/vc_column][vc_column width=”1/3″ el_class=”sticky-column”]

Par Gliding.lv

[vc_column_text]Gliding.lv ir interneta vietne par planieriem un planierismu. Šeit būs atrodama informācija par iespējām pamēģināt, iesaistīties un organizēt planierisma aktivitātes. Izmanto Gliding.lv forumu, ja Tev ir kāda tēma diskusijai vai jautājums. Gliding.lv merķis ir informēt un apvienot planierisma interesentus, nodrošinot un apmainoties ar aktuālāko un arī bijušo. Lidojam![/vc_column_text][vc_column_text]
[/vc_column_text]

METAR

EVRA 230650Z 23006KT 200V280 5000 SN SCT009 OVC018 00/M00 Q1014 NOSIG

EVLA 230650Z AUTO 26014KT 9999 FEW025/// BKN034/// OVC040/// 01/M03 Q1016

EVVA 230650Z AUTO 26010KT 9999 OVC024 01/M02 Q1014

Nesenie raksti

[/vc_column][/vc_row]

Pāriet uz rīkjoslu